Location: Haliburton Scout Reserve
(45.0900°N, 78.3200°W)
Time: 07:41:39
(UTC-04:00)

S-56A Canister/Altair - Pass Details

Date: 06 February 2023
Orbit: 639 x 2493 km, 38.9° (Epoch: 27 March)

Event Time Altitude Azimuth Distance (km) Brightness Sun altitude
Rises 11:01:34 0° 241° (WSW) 2,930 10.6 26.3°
Reaches altitude 10° 11:03:56 10° 232° (SW) 2,024 10.0 26.5°
Maximum altitude 11:08:01 35° 166° (SSE) 1,101 10.8 26.7°
Drops below altitude 10° 11:12:47 10° 101° (E) 2,379 10.6 27.0°
Sets 11:15:48 0° 93° (E) 3,532 11.2 27.2°
